JST786 YSSY-YBSU

Flight info

Callsign JST786
Flight time 1h 20m
Altitude 37000
Route TESAT H252 OLSEM Y193 BANDA H252 GOMOL Q69 SU
Aircraft A320/M-SDE3FGHIRWY/LB1

Departure

Time 2026-05-07 03:12
Airport Sydney Kingsford Smith International Airport (YSSY)

Arrival

Time 2026-05-07 04:32
Airport Sunshine Coast Airport (YBSU)
Time Latitude Longitude Altitude Speed Heading
2026-05-07 02:29 -33.93514 151.17696 30 ft 0 kts 101°
2026-05-07 02:47 -33.93512 151.17672 30 ft 4 kts 89°
2026-05-07 02:48 -33.93513 151.17640 30 ft 4 kts 91°
2026-05-07 02:48 -33.93510 151.17614 30 ft 4 kts 111°
2026-05-07 02:48 -33.93496 151.17591 30 ft 4 kts 156°
2026-05-07 02:48 -33.93478 151.17584 30 ft 0 kts 167°
2026-05-07 02:51 -33.93486 151.17586 30 ft 0 kts 167°
2026-05-07 02:51 -33.93516 151.17594 30 ft 7 kts 168°
2026-05-07 02:52 -33.93568 151.17607 30 ft 9 kts 168°
2026-05-07 02:52 -33.93633 151.17627 30 ft 11 kts 158°
2026-05-07 02:52 -33.93703 151.17673 30 ft 12 kts 157°
2026-05-07 02:52 -33.93792 151.17698 30 ft 13 kts 168°
2026-05-07 02:53 -33.93842 151.17767 30 ft 14 kts 79°
2026-05-07 02:53 -33.93814 151.17884 30 ft 16 kts 73°
2026-05-07 02:53 -33.93782 151.18019 30 ft 18 kts 74°
2026-05-07 02:53 -33.93751 151.18151 30 ft 3 kts 73°
2026-05-07 03:00 -33.93746 151.18172 30 ft 6 kts 73°
2026-05-07 03:00 -33.93761 151.18228 30 ft 9 kts 139°
2026-05-07 03:01 -33.93825 151.18257 30 ft 11 kts 163°
2026-05-07 03:01 -33.93908 151.18271 29 ft 13 kts 206°
2026-05-07 03:01 -33.93946 151.18172 29 ft 14 kts 253°
2026-05-07 03:01 -33.93973 151.18064 29 ft 8 kts 253°
2026-05-07 03:02 -33.93976 151.18047 29 ft 6 kts 254°
2026-05-07 03:02 -33.93991 151.17986 28 ft 9 kts 254°
2026-05-07 03:02 -33.94009 151.17907 28 ft 9 kts 254°
2026-05-07 03:02 -33.94011 151.17898 28 ft 0 kts 254°
2026-05-07 03:03 -33.94013 151.17890 28 ft 5 kts 254°
2026-05-07 03:03 -33.94032 151.17833 28 ft 8 kts 226°
2026-05-07 03:03 -33.94093 151.17829 29 ft 10 kts 168°
2026-05-07 03:03 -33.94164 151.17847 30 ft 11 kts 167°
2026-05-07 03:04 -33.94264 151.17874 30 ft 17 kts 167°
2026-05-07 03:04 -33.94388 151.17905 30 ft 15 kts 167°
2026-05-07 03:04 -33.94490 151.17884 30 ft 16 kts 199°
2026-05-07 03:04 -33.94600 151.17901 29 ft 16 kts 168°
2026-05-07 03:05 -33.94707 151.17929 30 ft 16 kts 168°
2026-05-07 03:05 -33.94827 151.17960 30 ft 19 kts 168°
2026-05-07 03:05 -33.94913 151.17983 30 ft 20 kts 168°
2026-05-07 03:05 -33.95069 151.18024 30 ft 14 kts 160°
2026-05-07 03:06 -33.95095 151.18132 30 ft 16 kts 78°
2026-05-07 03:06 -33.95073 151.18252 30 ft 13 kts 78°
2026-05-07 03:06 -33.95057 151.18342 30 ft 10 kts 78°
2026-05-07 03:06 -33.95047 151.18401 30 ft 7 kts 78°
2026-05-07 03:07 -33.95043 151.18424 30 ft 0 kts 78°
2026-05-07 03:07 -33.95041 151.18433 29 ft 4 kts 78°
2026-05-07 03:07 -33.95073 151.18506 30 ft 10 kts 146°
2026-05-07 03:07 -33.95157 151.18589 30 ft 20 kts 137°
2026-05-07 03:08 -33.95272 151.18698 30 ft 22 kts 152°
2026-05-07 03:08 -33.95429 151.18747 30 ft 24 kts 168°
2026-05-07 03:08 -33.95602 151.18793 30 ft 26 kts 168°
2026-05-07 03:08 -33.95725 151.18825 30 ft 28 kts 168°
2026-05-07 03:09 -33.95914 151.18875 30 ft 28 kts 167°
2026-05-07 03:09 -33.96090 151.18921 30 ft 27 kts 169°
2026-05-07 03:09 -33.96263 151.18964 30 ft 26 kts 168°
2026-05-07 03:09 -33.96447 151.19011 30 ft 28 kts 168°
2026-05-07 03:10 -33.96603 151.19053 30 ft 22 kts 168°
2026-05-07 03:10 -33.96728 151.19075 30 ft 18 kts 186°
2026-05-07 03:10 -33.96858 151.19073 30 ft 20 kts 168°
2026-05-07 03:10 -33.96997 151.19110 30 ft 18 kts 167°
2026-05-07 03:11 -33.97100 151.19139 30 ft 13 kts 158°
2026-05-07 03:11 -33.97118 151.19240 29 ft 15 kts 77°
2026-05-07 03:11 -33.97097 151.19353 26 ft 10 kts 75°
2026-05-07 03:11 -33.97046 151.19372 28 ft 7 kts 345°
2026-05-07 03:12 -33.96917 151.19334 24 ft 47 kts 347°
2026-05-07 03:12 -33.96370 151.19192 28 ft 110 kts 348°
2026-05-07 03:12 -33.95467 151.18951 47 ft 153 kts 345°
2026-05-07 03:12 -33.94426 151.18710 623 ft 156 kts 345°
2026-05-07 03:13 -33.93319 151.19035 1131 ft 181 kts 27°
2026-05-07 03:13 -33.92336 151.20136 1405 ft 206 kts 43°
2026-05-07 03:13 -33.91244 151.21390 1661 ft 228 kts 34°
2026-05-07 03:13 -33.89884 151.22537 2043 ft 246 kts 27°
2026-05-07 03:14 -33.88416 151.23630 2862 ft 249 kts 27°
2026-05-07 03:14 -33.86950 151.24698 3638 ft 259 kts 26°
2026-05-07 03:14 -33.83744 151.27284 4910 ft 294 kts 44°
2026-05-07 03:15 -33.82646 151.29348 5694 ft 303 kts 70°
2026-05-07 03:15 -33.82008 151.31793 6485 ft 310 kts 76°
2026-05-07 03:15 -33.81385 151.34295 7282 ft 315 kts 75°
2026-05-07 03:15 -33.80577 151.36761 8111 ft 319 kts 58°
2026-05-07 03:16 -33.79260 151.38916 8920 ft 321 kts 49°
2026-05-07 03:16 -33.77856 151.41024 9774 ft 325 kts 48°
2026-05-07 03:16 -33.76423 151.43159 10383 ft 336 kts 47°
2026-05-07 03:16 -33.74897 151.45418 10589 ft 359 kts 47°
2026-05-07 03:17 -33.73303 151.47783 11089 ft 368 kts 46°
2026-05-07 03:17 -33.71713 151.50154 11800 ft 371 kts 44°
2026-05-07 03:17 -33.70094 151.52576 12549 ft 373 kts 43°
2026-05-07 03:17 -33.68465 151.55007 13291 ft 375 kts 43°
2026-05-07 03:18 -33.66821 151.57455 13996 ft 377 kts 41°
2026-05-07 03:18 -33.65109 151.59822 14599 ft 372 kts 34°
2026-05-07 03:18 -33.63158 151.61798 15174 ft 364 kts 23°
2026-05-07 03:18 -33.61048 151.63458 15759 ft 364 kts 20°
2026-05-07 03:19 -33.58931 151.65108 16488 ft 362 kts 20°
2026-05-07 03:19 -33.56843 151.66738 17121 ft 364 kts 19°
2026-05-07 03:19 -33.54720 151.68398 17643 ft 367 kts 19°
2026-05-07 03:19 -33.52561 151.70085 18099 ft 374 kts 18°
2026-05-07 03:20 -33.50346 151.71723 18571 ft 371 kts 13°
2026-05-07 03:20 -33.48019 151.72961 19061 ft 360 kts
2026-05-07 03:20 -33.45639 151.73798 19594 ft 356 kts
2026-05-07 03:20 -33.43238 151.74573 20118 ft 359 kts
2026-05-07 03:21 -33.40816 151.75349 20640 ft 362 kts
2026-05-07 03:21 -33.38406 151.76121 21112 ft 365 kts
2026-05-07 03:21 -33.35952 151.76910 21597 ft 368 kts
2026-05-07 03:21 -33.33473 151.77708 21986 ft 371 kts
2026-05-07 03:22 -33.30960 151.78516 22331 ft 377 kts
2026-05-07 03:22 -33.28410 151.79334 22746 ft 382 kts
2026-05-07 03:22 -33.25835 151.80164 23200 ft 385 kts
2026-05-07 03:22 -33.23239 151.81004 23640 ft 388 kts
2026-05-07 03:23 -33.20623 151.81850 24038 ft 391 kts
2026-05-07 03:23 -33.17993 151.82702 24441 ft 393 kts
2026-05-07 03:23 -33.15385 151.83545 24843 ft 394 kts
2026-05-07 03:23 -33.12733 151.84398 25245 ft 396 kts
2026-05-07 03:24 -33.10062 151.85257 25542 ft 399 kts
2026-05-07 03:24 -33.07366 151.86122 25884 ft 403 kts
2026-05-07 03:24 -33.04653 151.86996 26265 ft 405 kts
2026-05-07 03:24 -33.01928 151.87873 26668 ft 406 kts
2026-05-07 03:25 -32.99192 151.88753 27062 ft 408 kts
2026-05-07 03:25 -32.96446 151.89635 27449 ft 410 kts
2026-05-07 03:25 -32.93727 151.90508 27840 ft 411 kts
2026-05-07 03:25 -32.90958 151.91394 28229 ft 413 kts
2026-05-07 03:26 -32.88179 151.92281 28547 ft 414 kts
2026-05-07 03:26 -32.85394 151.93172 28954 ft 416 kts
2026-05-07 03:26 -32.82595 151.94068 29374 ft 417 kts
2026-05-07 03:26 -32.79797 151.94963 29831 ft 416 kts
2026-05-07 03:27 -32.76996 151.95858 30218 ft 417 kts
2026-05-07 03:27 -32.74186 151.96751 30532 ft 419 kts
2026-05-07 03:27 -32.71371 151.97645 30932 ft 418 kts
2026-05-07 03:27 -32.68603 151.98528 31352 ft 417 kts
2026-05-07 03:28 -32.65800 151.99424 31771 ft 416 kts
2026-05-07 03:28 -32.63012 152.00313 32193 ft 415 kts
2026-05-07 03:28 -32.60220 152.01203 32597 ft 415 kts
2026-05-07 03:28 -32.57437 152.02089 33028 ft 414 kts
2026-05-07 03:29 -32.54660 152.02972 33468 ft 413 kts
2026-05-07 03:29 -32.51889 152.03852 33907 ft 412 kts
2026-05-07 03:29 -32.49126 152.04728 34301 ft 411 kts
2026-05-07 03:29 -32.46365 152.05604 34600 ft 411 kts
2026-05-07 03:30 -32.43597 152.06477 34832 ft 412 kts
2026-05-07 03:30 -32.40867 152.07337 35079 ft 413 kts
2026-05-07 03:30 -32.38086 152.08211 35314 ft 415 kts
2026-05-07 03:30 -32.35293 152.09089 35565 ft 416 kts
2026-05-07 03:31 -32.32492 152.09970 35823 ft 417 kts
2026-05-07 03:31 -32.29683 152.10856 36079 ft 418 kts
2026-05-07 03:31 -32.26867 152.11747 36330 ft 419 kts
2026-05-07 03:31 -32.24045 152.12642 36561 ft 421 kts
2026-05-07 03:32 -32.21253 152.13527 36737 ft 422 kts
2026-05-07 03:32 -32.18421 152.14421 36961 ft 423 kts
2026-05-07 03:32 -32.15567 152.15313 37034 ft 426 kts
2026-05-07 03:33 -32.09788 152.17109 37028 ft 430 kts
2026-05-07 03:33 -32.04003 152.18933 37027 ft 431 kts
2026-05-07 03:34 -31.98213 152.20768 37019 ft 431 kts
2026-05-07 03:34 -31.92458 152.22581 37021 ft 431 kts
2026-05-07 03:35 -31.86661 152.24385 37025 ft 431 kts
2026-05-07 03:35 -31.80857 152.26184 37033 ft 432 kts
2026-05-07 03:36 -31.75050 152.27997 36996 ft 432 kts
2026-05-07 03:36 -31.69284 152.29797 37008 ft 432 kts
2026-05-07 03:37 -31.63475 152.31610 37031 ft 432 kts
2026-05-07 03:37 -31.57670 152.33410 37036 ft 432 kts
2026-05-07 03:38 -31.51863 152.35208 37019 ft 432 kts
2026-05-07 03:38 -31.46091 152.36989 37031 ft 432 kts
2026-05-07 03:39 -31.40284 152.38791 37034 ft 432 kts
2026-05-07 03:39 -31.34480 152.40588 37029 ft 431 kts
2026-05-07 03:40 -31.28679 152.42376 36997 ft 431 kts
2026-05-07 03:40 -31.22875 152.44158 37014 ft 431 kts
2026-05-07 03:41 -31.17115 152.45932 37020 ft 431 kts
2026-05-07 03:41 -31.11314 152.47723 37026 ft 431 kts
2026-05-07 03:42 -31.05523 152.49502 36996 ft 431 kts
2026-05-07 03:42 -30.99731 152.51280 37021 ft 430 kts
2026-05-07 03:43 -30.93982 152.53038 37052 ft 430 kts
2026-05-07 03:43 -30.88191 152.54801 37039 ft 430 kts
2026-05-07 03:44 -30.82409 152.56563 37008 ft 429 kts
2026-05-07 03:44 -30.76633 152.58399 37015 ft 433 kts
2026-05-07 03:45 -30.70872 152.60517 37025 ft 435 kts
2026-05-07 03:45 -30.65143 152.62689 37028 ft 436 kts
2026-05-07 03:46 -30.59381 152.64810 36970 ft 434 kts
2026-05-07 03:46 -30.53617 152.66880 37002 ft 434 kts
2026-05-07 03:47 -30.47848 152.68955 37013 ft 434 kts
2026-05-07 03:47 -30.42081 152.71037 37017 ft 434 kts
2026-05-07 03:48 -30.36369 152.73100 37027 ft 433 kts
2026-05-07 03:48 -30.30617 152.75172 37026 ft 433 kts
2026-05-07 03:49 -30.24871 152.77239 37013 ft 433 kts
2026-05-07 03:49 -30.19119 152.79301 37015 ft 433 kts
2026-05-07 03:50 -30.13410 152.81344 36978 ft 433 kts
2026-05-07 03:50 -30.07658 152.83409 36996 ft 432 kts
2026-05-07 03:51 -30.01907 152.85473 36992 ft 432 kts
2026-05-07 03:51 -29.96159 152.87521 36994 ft 432 kts
2026-05-07 03:52 -29.90451 152.89552 36956 ft 433 kts
2026-05-07 03:52 -29.84697 152.91609 36973 ft 433 kts
2026-05-07 03:53 -29.78946 152.93658 36991 ft 433 kts
2026-05-07 03:53 -29.73232 152.95687 36998 ft 433 kts
2026-05-07 03:54 -29.67480 152.97732 36952 ft 432 kts
2026-05-07 03:54 -29.61739 152.99777 36984 ft 432 kts
2026-05-07 03:55 -29.56004 153.01811 37001 ft 432 kts
2026-05-07 03:55 -29.50262 153.03841 37006 ft 432 kts
2026-05-07 03:56 -29.44560 153.05852 36954 ft 431 kts
2026-05-07 03:56 -29.38824 153.07872 36983 ft 431 kts
2026-05-07 03:57 -29.33095 153.09898 36998 ft 431 kts
2026-05-07 03:57 -29.27369 153.11922 37002 ft 430 kts
2026-05-07 03:58 -29.21691 153.13922 37006 ft 430 kts
2026-05-07 03:58 -29.15964 153.15930 36975 ft 430 kts
2026-05-07 03:59 -29.10239 153.17939 37001 ft 430 kts
2026-05-07 03:59 -29.04516 153.19945 37003 ft 430 kts
2026-05-07 04:00 -28.98839 153.21937 37013 ft 430 kts
2026-05-07 04:00 -28.93124 153.23938 36973 ft 429 kts
2026-05-07 04:01 -28.87420 153.25937 36997 ft 429 kts
2026-05-07 04:01 -28.81707 153.27925 37012 ft 429 kts
2026-05-07 04:02 -28.75995 153.29914 37013 ft 429 kts
2026-05-07 04:02 -28.70320 153.31897 36978 ft 430 kts
2026-05-07 04:03 -28.64606 153.33880 36990 ft 430 kts
2026-05-07 04:03 -28.58875 153.35871 37001 ft 430 kts
2026-05-07 04:04 -28.53140 153.37865 37010 ft 431 kts
2026-05-07 04:04 -28.47443 153.39845 36970 ft 431 kts
2026-05-07 04:05 -28.41705 153.41835 36973 ft 431 kts
2026-05-07 04:05 -28.35958 153.43821 36968 ft 432 kts
2026-05-07 04:06 -28.30209 153.45811 36979 ft 432 kts
2026-05-07 04:06 -28.24503 153.47783 36980 ft 432 kts
2026-05-07 04:07 -28.18757 153.49730 36950 ft 425 kts 358°
2026-05-07 04:07 -28.15900 153.50289 36957 ft 409 kts 350°
2026-05-07 04:07 -28.13113 153.50389 36962 ft 397 kts 345°
2026-05-07 04:08 -28.07585 153.50300 36995 ft 398 kts 345°
2026-05-07 04:08 -28.02079 153.50233 37002 ft 398 kts 345°
2026-05-07 04:09 -27.96528 153.50179 36826 ft 399 kts 345°
2026-05-07 04:09 -27.93758 153.50152 36572 ft 398 kts 345°
2026-05-07 04:09 -27.90992 153.50126 36329 ft 398 kts 345°
2026-05-07 04:09 -27.88222 153.50101 36082 ft 398 kts 345°
2026-05-07 04:10 -27.85452 153.50074 35817 ft 398 kts 345°
2026-05-07 04:10 -27.82682 153.50043 35212 ft 399 kts 346°
2026-05-07 04:10 -27.79895 153.50007 34511 ft 402 kts 346°
2026-05-07 04:10 -27.77081 153.49970 33710 ft 406 kts 346°
2026-05-07 04:11 -27.74283 153.49936 32913 ft 409 kts 347°
2026-05-07 04:11 -27.71432 153.49909 32127 ft 410 kts 347°
2026-05-07 04:11 -27.68586 153.49885 31530 ft 407 kts 348°
2026-05-07 04:11 -27.65777 153.49865 31075 ft 401 kts 348°
2026-05-07 04:12 -27.62998 153.49840 30570 ft 397 kts 348°
2026-05-07 04:12 -27.60251 153.49814 30061 ft 393 kts 348°
2026-05-07 04:12 -27.57529 153.49787 29508 ft 388 kts 348°
2026-05-07 04:12 -27.54845 153.49761 28973 ft 384 kts 348°
2026-05-07 04:13 -27.52189 153.49730 28444 ft 380 kts 348°
2026-05-07 04:13 -27.49592 153.49701 27913 ft 376 kts 349°
2026-05-07 04:13 -27.46992 153.49672 27400 ft 373 kts 349°
2026-05-07 04:13 -27.44399 153.49644 26880 ft 371 kts 349°
2026-05-07 04:14 -27.41824 153.49617 26349 ft 370 kts 349°
2026-05-07 04:14 -27.39256 153.49593 25876 ft 368 kts 349°
2026-05-07 04:14 -27.36693 153.49569 25375 ft 368 kts 349°
2026-05-07 04:14 -27.34130 153.49543 24902 ft 368 kts 349°
2026-05-07 04:15 -27.31572 153.49519 24427 ft 368 kts 349°
2026-05-07 04:15 -27.29055 153.49496 23973 ft 367 kts 349°
2026-05-07 04:15 -27.26504 153.49476 23496 ft 366 kts 350°
2026-05-07 04:15 -27.23959 153.49456 23005 ft 364 kts 350°
2026-05-07 04:16 -27.21438 153.49435 22560 ft 360 kts 350°
2026-05-07 04:16 -27.18941 153.49412 22109 ft 357 kts 350°
2026-05-07 04:16 -27.16468 153.49391 21662 ft 354 kts 350°
2026-05-07 04:16 -27.14011 153.49369 21203 ft 350 kts 350°
2026-05-07 04:17 -27.11584 153.49347 20752 ft 347 kts 351°
2026-05-07 04:17 -27.09212 153.49323 20300 ft 345 kts 351°
2026-05-07 04:17 -27.06813 153.49297 19830 ft 344 kts 351°
2026-05-07 04:17 -27.04423 153.49272 19359 ft 343 kts 351°
2026-05-07 04:18 -27.02039 153.49245 18879 ft 342 kts 351°
2026-05-07 04:18 -26.99663 153.49218 18399 ft 342 kts 352°
2026-05-07 04:18 -26.97280 153.49197 17862 ft 342 kts 352°
2026-05-07 04:18 -26.94913 153.49180 17375 ft 339 kts 352°
2026-05-07 04:19 -26.92562 153.49163 16889 ft 337 kts 353°
2026-05-07 04:19 -26.90254 153.49144 16416 ft 335 kts 353°
2026-05-07 04:19 -26.87924 153.49123 15925 ft 334 kts 353°
2026-05-07 04:19 -26.85606 153.49102 15451 ft 333 kts 354°
2026-05-07 04:20 -26.83294 153.49079 14973 ft 332 kts 354°
2026-05-07 04:20 -26.80988 153.49055 14496 ft 332 kts 354°
2026-05-07 04:20 -26.78677 153.49031 14014 ft 332 kts 355°
2026-05-07 04:21 -26.74100 153.48678 13012 ft 325 kts 342°
2026-05-07 04:21 -26.72021 153.47843 12542 ft 320 kts 331°
2026-05-07 04:21 -26.70117 153.46593 12088 ft 316 kts 325°
2026-05-07 04:21 -26.68260 153.45282 11632 ft 315 kts 325°
2026-05-07 04:22 -26.66414 153.43977 11184 ft 314 kts 325°
2026-05-07 04:22 -26.64572 153.42676 10726 ft 313 kts 325°
2026-05-07 04:22 -26.62737 153.41381 10397 ft 308 kts 325°
2026-05-07 04:22 -26.60954 153.40126 10285 ft 297 kts 325°
2026-05-07 04:23 -26.59235 153.38917 10144 ft 287 kts 325°
2026-05-07 04:23 -26.57586 153.37760 10025 ft 280 kts 325°
2026-05-07 04:23 -26.55931 153.36597 9786 ft 285 kts 325°
2026-05-07 04:23 -26.54246 153.35409 9242 ft 284 kts 325°
2026-05-07 04:24 -26.52578 153.34235 8601 ft 283 kts 326°
2026-05-07 04:24 -26.50918 153.33065 7976 ft 282 kts 326°
2026-05-07 04:24 -26.49262 153.31896 7394 ft 281 kts 326°
2026-05-07 04:24 -26.47612 153.30734 6835 ft 281 kts 325°
2026-05-07 04:25 -26.46141 153.29321 6506 ft 278 kts 309°
2026-05-07 04:25 -26.45122 153.27543 6172 ft 275 kts 293°
2026-05-07 04:25 -26.44349 153.25599 5836 ft 273 kts 292°
2026-05-07 04:25 -26.43650 153.23637 5485 ft 271 kts 283°
2026-05-07 04:26 -26.43424 153.21599 5116 ft 260 kts 267°
2026-05-07 04:26 -26.43566 153.19628 4750 ft 251 kts 264°
2026-05-07 04:26 -26.43711 153.17728 4426 ft 241 kts 264°
2026-05-07 04:26 -26.43847 153.15902 4148 ft 229 kts 264°
2026-05-07 04:27 -26.43974 153.14213 4105 ft 208 kts 264°
2026-05-07 04:27 -26.44088 153.12690 4127 ft 188 kts 264°
2026-05-07 04:27 -26.44223 153.11255 4120 ft 184 kts 257°
2026-05-07 04:27 -26.44525 153.09880 3870 ft 183 kts 255°
2026-05-07 04:28 -26.44832 153.08508 3612 ft 182 kts 255°
2026-05-07 04:28 -26.45139 153.07133 3362 ft 182 kts 255°
2026-05-07 04:28 -26.45454 153.05779 3109 ft 180 kts 250°
2026-05-07 04:28 -26.45997 153.04520 2868 ft 180 kts 236°
2026-05-07 04:29 -26.46799 153.03457 2635 ft 179 kts 223°
2026-05-07 04:29 -26.47806 153.02645 2401 ft 178 kts 210°
2026-05-07 04:29 -26.48897 153.02157 2176 ft 168 kts 196°
2026-05-07 04:29 -26.50013 153.01964 1956 ft 163 kts 185°
2026-05-07 04:30 -26.51137 153.02052 1737 ft 163 kts 172°
2026-05-07 04:30 -26.52213 153.02420 1515 ft 158 kts 159°
2026-05-07 04:30 -26.53137 153.03010 1316 ft 150 kts 146°
2026-05-07 04:30 -26.53947 153.03713 1125 ft 146 kts 142°
2026-05-07 04:31 -26.54754 153.04399 952 ft 144 kts 140°
2026-05-07 04:31 -26.55538 153.05084 727 ft 142 kts 139°
2026-05-07 04:31 -26.56326 153.05756 537 ft 143 kts 139°
2026-05-07 04:31 -26.57108 153.06428 348 ft 142 kts 138°
2026-05-07 04:32 -26.57890 153.07094 174 ft 142 kts 140°
2026-05-07 04:32 -26.58654 153.07750 29 ft 134 kts 139°
2026-05-07 04:32 -26.59270 153.08275 21 ft 89 kts 142°
2026-05-07 04:32 -26.59627 153.08579 22 ft 44 kts 142°
2026-05-07 04:33 -26.59838 153.08759 23 ft 35 kts 143°
2026-05-07 04:33 -26.60031 153.08923 22 ft 35 kts 142°
2026-05-07 04:33 -26.60218 153.09081 23 ft 27 kts 143°
2026-05-07 04:33 -26.60329 153.09171 22 ft 12 kts 149°
2026-05-07 04:34 -26.60415 153.09162 22 ft 14 kts 195°
2026-05-07 04:34 -26.60487 153.09130 22 ft 11 kts 222°
2026-05-07 04:34 -26.60525 153.09080 21 ft 6 kts 222°
2026-05-07 04:34 -26.60573 153.09060 22 ft 7 kts 200°
2026-05-07 04:35 -26.60578 153.09005 21 ft 7 kts 285°
2026-05-07 04:35 -26.60569 153.08966 22 ft 1 kts 284°
2026-05-07 04:35 -26.60566 153.08953 21 ft 0 kts 284°